�������l�o���
Date,Time,MP-1(��Sv/h),MP-2(��Sv/h),MP-3(��Sv/h),MP-4(��Sv/h),MP-5(��Sv/h),MP-6(��Sv/h),MP-7(��Sv/h),MP-8(��Sv/h),����,����(m/s),���J
2019/06/27,00:00,0.759,1.079,0.735,1.319,0.980,0.436,0.749,0.710,��쐼,2.6,��
2019/06/27,00:10,0.761,1.081,0.733,1.319,0.982,0.436,0.751,0.711,���쐼,2.2,��
2019/06/27,00:20,0.758,1.078,0.734,1.320,0.979,0.435,0.751,0.711,��,1.2,��
2019/06/27,00:30,0.760,1.081,0.734,1.322,0.980,0.435,0.750,0.710,�k��,0.9,��
2019/06/27,00:40,0.759,1.078,0.733,1.321,0.980,0.436,0.750,0.711,�k��,0.9,��
2019/06/27,00:50,0.760,1.078,0.734,1.320,0.982,0.435,0.749,0.709,�k��,0.9,��
2019/06/27,01:00,0.758,1.077,0.733,1.322,0.981,0.436,0.751,0.709,���k��,1.1,��
2019/06/27,01:10,0.760,1.079,0.732,1.321,0.982,0.435,0.751,0.711,��,0.8,��
2019/06/27,01:20,0.759,1.081,0.732,1.322,0.981,0.434,0.749,0.709,���k��,0.8,��
2019/06/27,01:30,0.759,1.079,0.733,1.321,0.980,0.437,0.751,0.710,�k��,0.9,��
2019/06/27,01:40,0.757,1.080,0.733,1.318,0.981,0.436,0.751,0.711,���쓌,0.6,��
2019/06/27,01:50,0.758,1.080,0.732,1.321,0.979,0.435,0.751,0.710,�쓌,2.0,��
2019/06/27,02:00,0.759,1.080,0.732,1.320,0.981,0.435,0.750,0.711,��쓌,2.5,��
2019/06/27,02:10,0.759,1.081,0.733,1.321,0.980,0.435,0.752,0.710,��,2.9,��
2019/06/27,02:20,0.757,1.079,0.733,1.321,0.981,0.436,0.751,0.710,��쐼,2.6,��
2019/06/27,02:30,0.758,1.079,0.733,1.317,0.981,0.436,0.751,0.710,��,2.3,��
2019/06/27,02:40,0.760,1.081,0.734,1.320,0.980,0.436,0.750,0.711,�쐼,2.3,��
2019/06/27,02:50,0.758,1.077,0.731,1.322,0.979,0.436,0.751,0.712,���쐼,2.3,��
2019/06/27,03:00,0.758,1.080,0.732,1.321,0.978,0.435,0.750,0.709,�k��,2.9,��
2019/06/27,03:10,0.758,1.079,0.732,1.321,0.979,0.437,0.750,0.710,�k��,1.7,��
2019/06/27,03:20,0.758,1.078,0.733,1.321,0.978,0.436,0.750,0.710,-,CALM,��
2019/06/27,03:30,0.757,1.078,0.734,1.318,0.978,0.436,0.750,0.711,�k��,1.2,��
2019/06/27,03:40,0.757,1.079,0.732,1.319,0.981,0.435,0.752,0.710,���k��,1.5,��
2019/06/27,03:50,0.758,1.081,0.732,1.324,0.980,0.436,0.750,0.710,���k��,0.6,��
2019/06/27,04:00,0.756,1.078,0.733,1.322,0.980,0.435,0.750,0.710,���쐼,0.6,��
2019/06/27,04:10,0.758,1.079,0.733,1.320,0.979,0.436,0.751,0.712,��쓌,0.9,��
2019/06/27,04:20,0.759,1.079,0.733,1.321,0.981,0.436,0.750,0.710,��쓌,1.2,��
2019/06/27,04:30,0.758,1.079,0.736,1.324,0.981,0.436,0.750,0.711,��쓌,1.5,��
2019/06/27,04:40,0.760,1.078,0.733,1.319,0.980,0.436,0.751,0.710,��,1.5,��
2019/06/27,04:50,0.757,1.079,0.734,1.321,0.982,0.435,0.751,0.710,��,1.9,��
2019/06/27,05:00,0.757,1.078,0.733,1.321,0.980,0.437,0.750,0.712,��쐼,1.7,��
2019/06/27,05:10,0.757,1.079,0.733,1.319,0.982,0.435,0.752,0.709,��쐼,2.0,��
2019/06/27,05:20,0.757,1.077,0.734,1.322,0.979,0.436,0.752,0.711,�쐼,1.9,��
2019/06/27,05:30,0.757,1.080,0.735,1.321,0.981,0.436,0.751,0.710,�쐼,1.5,��
2019/06/27,05:40,0.759,1.080,0.732,1.322,0.979,0.434,0.750,0.710,�쐼,1.2,��
2019/06/27,05:50,0.758,1.078,0.731,1.323,0.981,0.435,0.750,0.710,�쐼,0.8,��
2019/06/27,06:00,0.758,1.077,0.734,1.318,0.979,0.436,0.752,0.711,��쐼,0.6,��
2019/06/27,06:10,0.758,1.080,0.731,1.324,0.982,0.436,0.751,0.710,-,CALM,��
2019/06/27,06:20,0.759,1.076,0.731,1.322,0.977,0.437,0.752,0.711,-,CALM,��
2019/06/27,06:30,0.756,1.074,0.732,1.322,0.979,0.435,0.752,0.711,�쐼,0.6,��
2019/06/27,06:40,0.756,1.074,0.734,1.322,0.979,0.435,0.751,0.711,-,CALM,��
2019/06/27,06:50,0.759,1.077,0.734,1.324,0.979,0.435,0.751,0.711,��,0.6,��
2019/06/27,07:00,0.759,1.077,0.732,1.318,0.979,0.434,0.751,0.711,���쓌,0.6,��
2019/06/27,07:10,0.758,1.076,0.733,1.323,0.980,0.433,0.751,0.710,�쓌,1.2,��
2019/06/27,07:20,0.762,1.075,0.733,1.321,0.980,0.434,0.750,0.710,�쓌,1.7,��
2019/06/27,07:30,0.760,1.075,0.734,1.322,0.980,0.433,0.749,0.710,�쓌,1.1,��
2019/06/27,07:40,0.759,1.074,0.735,1.320,0.978,0.433,0.751,0.709,��쓌,1.2,��
2019/06/27,07:50,0.760,1.076,0.733,1.321,0.980,0.434,0.749,0.710,�쓌,1.2,��
2019/06/27,08:00,0.757,1.075,0.734,1.318,0.983,0.436,0.748,0.708,���쓌,0.9,��
2019/06/27,08:10,0.760,1.077,0.735,1.323,0.981,0.434,0.747,0.707,�쓌,1.5,��
2019/06/27,08:20,0.759,1.075,0.736,1.323,0.981,0.435,0.748,0.709,��쓌,2.3,��
2019/06/27,08:30,0.757,1.074,0.732,1.323,0.983,0.432,0.749,0.707,��쓌,2.9,��
2019/06/27,08:40,0.758,1.078,0.734,1.323,0.981,0.432,0.750,0.708,��쓌,3.2,��
2019/06/27,08:50,0.757,1.075,0.734,1.323,0.981,0.434,0.752,0.710,��,3.1,��
2019/06/27,09:00,0.759,1.077,0.735,1.320,0.982,0.435,0.750,0.708,��,3.4,��
2019/06/27,09:10,0.761,1.076,0.734,1.324,0.981,0.434,0.751,0.709,��,2.6,��
2019/06/27,09:20,0.759,1.076,0.734,1.324,0.981,0.438,0.750,0.709,��쓌,2.6,��
2019/06/27,09:30,0.759,1.077,0.734,1.323,0.981,0.434,0.752,0.709,��쓌,3.5,��
2019/06/27,09:40,0.760,1.076,0.734,1.327,0.983,0.436,0.751,0.709,��쓌,3.1,��
2019/06/27,09:50,0.758,1.078,0.734,1.323,0.982,0.436,0.751,0.708,��쓌,3.6,��
2019/06/27,10:00,0.760,1.078,0.734,1.322,0.980,0.436,0.749,0.710,��쓌,3.8,��
2019/06/27,10:10,0.761,1.077,0.733,1.323,0.981,0.435,0.750,0.710,��쓌,4.4,��
2019/06/27,10:20,0.760,1.084,0.733,1.322,0.981,0.435,0.751,0.709,��쓌,4.6,��
2019/06/27,10:30,0.761,1.084,0.733,1.324,0.983,0.435,0.751,0.710,��쓌,5.1,��
2019/06/27,10:40,0.761,1.092,0.733,1.325,0.983,0.435,0.751,0.709,��,5.6,��
2019/06/27,10:50,0.760,1.095,0.736,1.323,0.983,0.435,0.751,0.710,��,5.5,��
2019/06/27,11:00,0.761,1.094,0.733,1.326,0.983,0.434,0.751,0.709,��쓌,6.3,��
2019/06/27,11:10,0.762,1.096,0.734,1.320,0.985,0.435,0.749,0.711,��쓌,6.7,��
2019/06/27,11:20,0.759,1.092,0.734,1.323,0.986,0.435,0.752,0.709,��,7.2,��
2019/06/27,11:30,0.762,1.094,0.734,1.324,0.986,0.436,0.752,0.710,��,7.2,��
2019/06/27,11:40,0.761,1.095,0.736,1.325,0.983,0.433,0.751,0.709,��,5.9,��
2019/06/27,11:50,0.761,1.095,0.736,1.326,0.984,0.435,0.751,0.709,��,5.5,��
2019/06/27,12:00,0.761,1.085,0.733,1.324,0.981,0.433,0.751,0.710,��,5.7,��
2019/06/27,12:10,0.760,1.088,0.729,1.324,0.985,0.433,0.752,0.710,��,6.0,��
2019/06/27,12:20,0.761,1.088,0.736,1.323,0.986,0.435,0.751,0.709,��,6.9,��
2019/06/27,12:30,0.762,1.086,0.736,1.322,0.985,0.435,0.754,0.710,��,6.3,��
2019/06/27,12:40,0.763,1.087,0.736,1.323,0.985,0.436,0.754,0.710,��,5.3,��
2019/06/27,12:50,0.762,1.089,0.735,1.323,0.986,0.435,0.752,0.710,��,5.8,��
2019/06/27,13:00,0.763,1.084,0.736,1.323,0.986,0.434,0.753,0.711,��,6.7,��
2019/06/27,13:10,0.762,1.083,0.736,1.322,0.988,0.434,0.753,0.710,��,5.7,��
2019/06/27,13:20,0.760,1.083,0.737,1.324,0.985,0.437,0.753,0.709,��,5.8,��
2019/06/27,13:30,0.764,1.084,0.736,1.323,0.985,0.437,0.753,0.711,��,7.4,��
2019/06/27,13:40,0.764,1.086,0.736,1.324,0.988,0.436,0.752,0.709,��,8.6,��
2019/06/27,13:50,0.762,1.084,0.736,1.323,0.984,0.436,0.751,0.712,��,7.2,��
2019/06/27,14:00,0.762,1.083,0.737,1.323,0.988,0.435,0.752,0.710,��,6.6,��
2019/06/27,14:10,0.763,1.082,0.740,1.326,0.987,0.435,0.754,0.710,��,7.6,��
2019/06/27,14:20,0.761,1.084,0.737,1.324,0.985,0.435,0.753,0.709,��,7.4,��
2019/06/27,14:30,0.763,1.083,0.738,1.323,0.987,0.435,0.752,0.711,��,5.9,��
2019/06/27,14:40,0.762,1.084,0.735,1.325,0.985,0.435,0.753,0.711,��,6.6,�L
2019/06/27,14:50,0.761,1.085,0.736,1.323,0.987,0.436,0.752,0.709,��,4.9,�L
2019/06/27,15:00,0.763,1.084,0.737,1.322,0.990,0.437,0.751,0.711,��쐼,3.5,��
2019/06/27,15:10,0.762,1.083,0.736,1.327,0.989,0.435,0.751,0.710,��쐼,4.6,��
2019/06/27,15:20,0.761,1.083,0.736,1.323,0.989,0.437,0.752,0.710,��,4.6,�L
2019/06/27,15:30,0.762,1.089,0.735,1.323,0.986,0.436,0.752,0.711,��,4.8,�L
2019/06/27,15:40,0.764,1.086,0.738,1.327,0.988,0.436,0.751,0.709,��,3.6,�L
2019/06/27,15:50,0.764,1.086,0.737,1.326,0.990,0.435,0.754,0.710,��쐼,2.8,�L
2019/06/27,16:00,0.766,1.088,0.740,1.327,0.990,0.437,0.755,0.710,�쐼,2.5,�L
2019/06/27,16:10,0.764,1.088,0.738,1.330,0.990,0.437,0.753,0.713,��,2.2,�L
2019/06/27,16:20,0.764,1.088,0.739,1.328,0.989,0.438,0.754,0.714,��,1.9,��
2019/06/27,16:30,0.765,1.090,0.739,1.327,0.989,0.438,0.752,0.710,�k��,3.3,�L
2019/06/27,16:40,0.764,1.091,0.739,1.328,0.991,0.439,0.753,0.712,�k�k��,4.0,�L
2019/06/27,16:50,0.764,1.088,0.739,1.327,0.988,0.438,0.751,0.712,�k�k��,3.0,�L
2019/06/27,17:00,0.763,1.086,0.738,1.328,0.990,0.439,0.753,0.711,�k�k��,2.3,�L
2019/06/27,17:10,0.764,1.086,0.738,1.325,0.989,0.440,0.754,0.712,�k�k��,4.2,�L
2019/06/27,17:20,0.763,1.087,0.741,1.327,0.989,0.438,0.754,0.714,�k�k��,3.6,�L
2019/06/27,17:30,0.761,1.086,0.741,1.327,0.987,0.439,0.753,0.712,�k�k��,4.0,�L
2019/06/27,17:40,0.762,1.089,0.740,1.326,0.987,0.439,0.753,0.712,�k�k��,4.1,�L
2019/06/27,17:50,0.759,1.088,0.740,1.328,0.988,0.438,0.753,0.710,�k�k��,5.0,�L
2019/06/27,18:00,0.759,1.083,0.739,1.326,0.988,0.438,0.753,0.711,�k�k��,4.4,�L
2019/06/27,18:10,0.761,1.083,0.740,1.327,0.987,0.438,0.752,0.711,�k�k��,4.7,�L
2019/06/27,18:20,0.762,1.084,0.740,1.325,0.988,0.436,0.754,0.713,�k�k��,4.5,�L
2019/06/27,18:30,0.760,1.086,0.739,1.326,0.986,0.435,0.753,0.711,�k�k��,3.6,�L
2019/06/27,18:40,0.759,1.082,0.739,1.328,0.985,0.436,0.753,0.711,�k�k��,3.4,�L
2019/06/27,18:50,0.760,1.082,0.739,1.326,0.986,0.438,0.753,0.712,�k�k��,2.8,�L
2019/06/27,19:00,0.759,1.078,0.739,1.322,0.986,0.437,0.752,0.712,�k�k��,2.0,�L
2019/06/27,19:10,0.757,1.082,0.737,1.325,0.984,0.434,0.752,0.712,�k��,2.6,�L
2019/06/27,19:20,0.756,1.079,0.738,1.324,0.983,0.435,0.753,0.712,�k�k��,2.3,�L
2019/06/27,19:30,0.755,1.077,0.736,1.325,0.984,0.434,0.752,0.714,�k�k��,1.7,�L
2019/06/27,19:40,0.756,1.077,0.739,1.326,0.980,0.434,0.751,0.712,�k��,0.9,�L
2019/06/27,19:50,0.756,1.075,0.745,1.323,0.980,0.435,0.752,0.712,�k��,1.2,�L
2019/06/27,20:00,0.753,1.076,0.742,1.324,0.981,0.434,0.751,0.710,�k��,0.9,�L
2019/06/27,20:10,0.755,1.076,0.743,1.322,0.981,0.434,0.750,0.710,-,CALM,�L
2019/06/27,20:20,0.753,1.073,0.740,1.321,0.978,0.434,0.751,0.711,-,CALM,�L
2019/06/27,20:30,0.753,1.072,0.739,1.321,0.979,0.435,0.750,0.709,-,CALM,�L
2019/06/27,20:40,0.755,1.073,0.737,1.321,0.981,0.434,0.751,0.710,���k��,0.6,�L
2019/06/27,20:50,0.754,1.072,0.735,1.321,0.979,0.434,0.750,0.709,�k��,0.6,�L
2019/06/27,21:00,0.752,1.073,0.733,1.320,0.978,0.433,0.748,0.711,�k�k��,0.6,�L
2019/06/27,21:10,0.753,1.070,0.733,1.320,0.977,0.433,0.749,0.708,���k��,0.6,�L
2019/06/27,21:20,0.752,1.070,0.734,1.323,0.976,0.434,0.750,0.711,��,0.9,�L
2019/06/27,21:30,0.750,1.067,0.733,1.323,0.977,0.432,0.749,0.709,-,CALM,�L
2019/06/27,21:40,0.750,1.072,0.733,1.320,0.976,0.433,0.750,0.709,�k�k��,0.6,�L
2019/06/27,21:50,0.752,1.069,0.731,1.320,0.973,0.433,0.749,0.709,�k�k��,0.8,�L
2019/06/27,22:00,0.751,1.069,0.734,1.321,0.976,0.433,0.750,0.710,-,CALM,��
2019/06/27,22:10,0.752,1.069,0.733,1.318,0.975,0.434,0.750,0.709,�쐼,1.9,��
2019/06/27,22:20,0.752,1.069,0.732,1.318,0.975,0.434,0.749,0.710,��,2.0,�L
2019/06/27,22:30,0.752,1.070,0.732,1.318,0.975,0.434,0.750,0.710,��쓌,0.9,�L
2019/06/27,22:40,0.751,1.070,0.731,1.320,0.976,0.433,0.748,0.708,�쐼,0.9,�L
2019/06/27,22:50,0.752,1.068,0.733,1.319,0.976,0.434,0.750,0.710,��쐼,1.1,�L
2019/06/27,23:00,0.753,1.068,0.733,1.321,0.973,0.433,0.749,0.709,��쐼,1.1,�L
2019/06/27,23:10,0.752,1.066,0.731,1.320,0.972,0.433,0.748,0.708,��쓌,1.1,�L
2019/06/27,23:20,0.750,1.063,0.732,1.316,0.968,0.432,0.746,0.707,��쓌,2.0,�L
2019/06/27,23:30,0.749,1.063,0.727,1.315,0.968,0.432,0.748,0.708,��쓌,3.8,�L
2019/06/27,23:40,0.746,1.059,0.727,1.312,0.964,0.431,0.747,0.707,��,1.5,�L
2019/06/27,23:50,0.747,1.054,0.726,1.311,0.963,0.433,0.745,0.705,��,2.0,�L
